When you browse on this site, cookies collect data to enhance your experience and personalize the content and advertising you see.
Visit our Privacy Policy to learn more. By continuing to use the site, you agree to this use of cookies and data.

Hourly Weather Ivanovskoe-2

Today, 5 July, Sunday

Time Temperature Precipitation Wind Pressure Humidity
00:00 +22°C° 0.1 mm 1 mps 741 mmHg 90%
01:00 +22°C° 0.1 mm 1 mps 741 mmHg 91%
02:00 +21°C° 0 mm 1 mps 741 mmHg 91%
03:00 +21°C° 0.1 mm 1 mps 741 mmHg 91%
04:00 +22°C° 0.1 mm 1 mps 740 mmHg 91%
05:00 +22°C° 0.1 mm 1 mps 740 mmHg 91%
06:00 +21°C° 0 mm 0 mps 740 mmHg 87%
07:00 +22°C° 0 mm 0 mps 740 mmHg 83%
08:00 +23°C° 0 mm 0 mps 741 mmHg 78%
09:00 +24°C° 0 mm 0 mps 741 mmHg 75%
10:00 +27°C° 0 mm 1 mps 741 mmHg 71%
11:00 +27°C° 0 mm 1 mps 740 mmHg 68%
12:00 +28°C° 0.1 mm 1 mps 740 mmHg 68%
13:00 +28°C° 0.1 mm 1 mps 740 mmHg 69%
14:00 +28°C° 0.1 mm 2 mps 740 mmHg 70%
15:00 +26°C° 3.3 mm 2 mps 740 mmHg 76%
16:00 +24°C° 3.3 mm 2 mps 740 mmHg 83%
17:00 +23°C° 3.3 mm 2 mps 739 mmHg 90%
18:00 +22°C° 0 mm 1 mps 739 mmHg 91%
19:00 +22°C° 0 mm 1 mps 740 mmHg 91%
20:00 +21°C° 0 mm 1 mps 740 mmHg 92%
21:00 +21°C° 0.1 mm 1 mps 740 mmHg 93%
22:00 +20°C° 0.1 mm 1 mps 740 mmHg 93%
23:00 +20°C° 0.1 mm 1 mps 740 mmHg 94%

Tomorrow, 6 July, Monday

Time Temperature Precipitation Wind Pressure Humidity
00:00 +20°C° 0 mm 1 mps 740 mmHg 94%
01:00 +19°C° 0 mm 1 mps 740 mmHg 94%
02:00 +18°C° 0 mm 2 mps 740 mmHg 94%
03:00 +18°C° 0 mm 2 mps 740 mmHg 94%
04:00 +18°C° 0 mm 2 mps 740 mmHg 94%
05:00 +19°C° 0 mm 1 mps 740 mmHg 94%
06:00 +21°C° 0 mm 1 mps 740 mmHg 89%
07:00 +22°C° 0 mm 1 mps 740 mmHg 85%
08:00 +23°C° 0 mm 1 mps 740 mmHg 80%
09:00 +24°C° 0 mm 1 mps 740 mmHg 75%
10:00 +25°C° 0 mm 1 mps 740 mmHg 70%
11:00 +26°C° 0 mm 1 mps 740 mmHg 65%
12:00 +27°C° 0 mm 1 mps 740 mmHg 63%
13:00 +27°C° 0 mm 1 mps 740 mmHg 62%
14:00 +28°C° 0 mm 1 mps 740 mmHg 60%
15:00 +28°C° 0 mm 1 mps 740 mmHg 62%
16:00 +27°C° 0 mm 1 mps 739 mmHg 65%
17:00 +27°C° 0 mm 1 mps 739 mmHg 67%
18:00 +26°C° 0 mm 1 mps 739 mmHg 71%
19:00 +24°C° 0 mm 1 mps 739 mmHg 75%
20:00 +23°C° 0 mm 1 mps 739 mmHg 78%
21:00 +22°C° 0 mm 1 mps 739 mmHg 80%
22:00 +22°C° 0 mm 1 mps 739 mmHg 81%
23:00 +21°C° 0 mm 1 mps 739 mmHg 83%

Day after tomorrow, 7 July, Tuesday

Time Temperature Precipitation Wind Pressure Humidity
00:00 +21°C° 0 mm 1 mps 739 mmHg 85%
01:00 +20°C° 0 mm 2 mps 739 mmHg 86%
02:00 +19°C° 0 mm 2 mps 739 mmHg 88%
03:00 +20°C° 0 mm 2 mps 739 mmHg 89%
04:00 +20°C° 0 mm 2 mps 739 mmHg 89%
05:00 +20°C° 0 mm 2 mps 739 mmHg 90%
06:00 +23°C° 0.2 mm 2 mps 739 mmHg 87%
07:00 +25°C° 0.2 mm 3 mps 738 mmHg 84%
08:00 +26°C° 0.2 mm 3 mps 738 mmHg 82%
09:00 +27°C° 0.1 mm 3 mps 738 mmHg 77%
10:00 +28°C° 0.1 mm 3 mps 738 mmHg 71%
11:00 +30°C° 0.1 mm 4 mps 738 mmHg 66%
12:00 +30°C° 0.6 mm 3 mps 737 mmHg 68%
13:00 +30°C° 0.6 mm 3 mps 737 mmHg 69%
14:00 +30°C° 0.6 mm 3 mps 737 mmHg 70%
15:00 +29°C° 0.3 mm 3 mps 737 mmHg 73%
16:00 +29°C° 0.3 mm 3 mps 737 mmHg 76%
17:00 +29°C° 0.3 mm 2 mps 737 mmHg 79%
18:00 +28°C° 0 mm 2 mps 736 mmHg 80%
19:00 +26°C° 0 mm 2 mps 736 mmHg 81%
20:00 +25°C° 0 mm 2 mps 736 mmHg 83%
21:00 +25°C° 0 mm 2 mps 736 mmHg 83%
22:00 +24°C° 0 mm 3 mps 736 mmHg 83%
23:00 +22°C° 0 mm 3 mps 736 mmHg 83%

8 July, Wednesday

Time Temperature Precipitation Wind Pressure Humidity
00:00 +22°C° 0 mm 3 mps 736 mmHg 81%
01:00 +22°C° 0 mm 3 mps 736 mmHg 78%
02:00 +21°C° 0 mm 3 mps 736 mmHg 76%
03:00 +21°C° 0 mm 3 mps 736 mmHg 77%
04:00 +22°C° 0 mm 3 mps 736 mmHg 78%
05:00 +23°C° 0 mm 2 mps 736 mmHg 79%
06:00 +24°C° 0 mm 3 mps 736 mmHg 76%
07:00 +26°C° 0 mm 4 mps 736 mmHg 73%
08:00 +27°C° 0 mm 4 mps 736 mmHg 70%
09:00 +27°C° 0 mm 4 mps 736 mmHg 70%
10:00 +28°C° 0 mm 4 mps 736 mmHg 70%
11:00 +28°C° 0 mm 3 mps 736 mmHg 71%
12:00 +29°C° 0.1 mm 3 mps 736 mmHg 71%
13:00 +29°C° 0.1 mm 3 mps 736 mmHg 72%
14:00 +29°C° 0.1 mm 2 mps 736 mmHg 72%
15:00 +29°C° 1.1 mm 2 mps 736 mmHg 75%
16:00 +28°C° 1.1 mm 2 mps 737 mmHg 78%
17:00 +28°C° 1.1 mm 2 mps 737 mmHg 81%
18:00 +26°C° 0.3 mm 2 mps 737 mmHg 83%
19:00 +24°C° 0.3 mm 2 mps 737 mmHg 86%
20:00 +21°C° 0.3 mm 2 mps 737 mmHg 88%
21:00 +21°C° 0.3 mm 2 mps 737 mmHg 91%
22:00 +20°C° 0.3 mm 2 mps 737 mmHg 93%
23:00 +20°C° 0.3 mm 2 mps 737 mmHg 95%

9 July, Thursday

Time Temperature Precipitation Wind Pressure Humidity
00:00 +20°C° 0.2 mm 3 mps 737 mmHg 96%
01:00 +19°C° 0.2 mm 3 mps 737 mmHg 96%
02:00 +19°C° 0.2 mm 3 mps 737 mmHg 97%
03:00 +19°C° 0.3 mm 3 mps 737 mmHg 97%
04:00 +19°C° 0.3 mm 3 mps 737 mmHg 97%
05:00 +19°C° 0.3 mm 3 mps 737 mmHg 97%
06:00 +19°C° 0.7 mm 4 mps 737 mmHg 96%
07:00 +19°C° 0.7 mm 4 mps 738 mmHg 96%
08:00 +18°C° 0.7 mm 4 mps 738 mmHg 96%
09:00 +19°C° 0.6 mm 4 mps 738 mmHg 95%
10:00 +19°C° 0.6 mm 4 mps 738 mmHg 94%
11:00 +19°C° 0.6 mm 4 mps 738 mmHg 94%
12:00 +19°C° 0.5 mm 4 mps 738 mmHg 94%
13:00 +17°C° 0.5 mm 5 mps 738 mmHg 94%
14:00 +17°C° 0.5 mm 5 mps 738 mmHg 94%
15:00 +16°C° 0.7 mm 6 mps 738 mmHg 94%
16:00 +16°C° 0.7 mm 6 mps 738 mmHg 94%
17:00 +15°C° 0.7 mm 7 mps 738 mmHg 94%
18:00 +15°C° 0.1 mm 6 mps 738 mmHg 94%
19:00 +14°C° 0.1 mm 5 mps 739 mmHg 93%
20:00 +14°C° 0.1 mm 5 mps 739 mmHg 93%
21:00 +13°C° 0 mm 4 mps 739 mmHg 94%
22:00 +13°C° 0 mm 4 mps 740 mmHg 95%
23:00 +12°C° 0 mm 4 mps 740 mmHg 96%

10 July, Friday

Time Temperature Precipitation Wind Pressure Humidity
00:00 +12°C° 0 mm 4 mps 740 mmHg 95%
01:00 +11°C° 0 mm 4 mps 741 mmHg 95%
02:00 +11°C° 0 mm 4 mps 741 mmHg 94%
03:00 +12°C° 0 mm 3 mps 742 mmHg 94%
04:00 +12°C° 0 mm 3 mps 742 mmHg 93%
05:00 +12°C° 0 mm 3 mps 742 mmHg 92%
06:00 +14°C° 0 mm 3 mps 743 mmHg 88%
07:00 +16°C° 0 mm 3 mps 743 mmHg 83%
08:00 +18°C° 0 mm 3 mps 743 mmHg 78%
09:00 +19°C° 0 mm 3 mps 744 mmHg 74%
10:00 +20°C° 0 mm 3 mps 744 mmHg 71%
11:00 +21°C° 0 mm 3 mps 744 mmHg 67%
12:00 +21°C° 0 mm 3 mps 744 mmHg 66%
13:00 +22°C° 0 mm 3 mps 744 mmHg 66%
14:00 +22°C° 0 mm 3 mps 744 mmHg 65%
15:00 +22°C° 0 mm 3 mps 745 mmHg 68%
16:00 +22°C° 0 mm 3 mps 745 mmHg 70%
17:00 +22°C° 0 mm 3 mps 745 mmHg 73%
18:00 +20°C° 0 mm 2 mps 745 mmHg 77%
19:00 +19°C° 0 mm 2 mps 746 mmHg 81%
20:00 +17°C° 0 mm 2 mps 746 mmHg 85%
21:00 +16°C° 0 mm 2 mps 746 mmHg 86%
22:00 +16°C° 0 mm 2 mps 746 mmHg 87%
23:00 +15°C° 0 mm 2 mps 747 mmHg 89%
Show more